STARLINK-31893, 59792

Orbit data source: Space-Track

STARLINK-31893, 59792 is a payload satellite owned by SpaceX/Seattle (US) in LEO that was launched on Sat, 18 May 2024 UTC via an FALCON 9 launch vehicle from the Air Force Eastern Test Range (AFETR). Payloads include a variety of satellites, spacecraft, and rockets equipped with specific instruments for various scientific and technological missions. These include communications satellites like Starlink; space stations such as the ISS; scientific satellites like the Hubble; Earth observation satellites from companies like Planet Labs, Umbra, and HawkEye 360; GPS; miniature CubeSats for education and research; and military/defense satellites.

Loading next visibility...
STARLINK-31893 details
Identifier
59792, 2024-093L
Orbit
LEO
Last TLE update20 hours ago
Origin
Flag of USSpaceX/Seattle (US)
ManufacturerSpaceX/Seattle
MissionOperational spacecraft
Bus & MotorSTARLINK V2M, Unknown motor
Mass730 kg wet, ~700 kg dry
Launch date (UTC)
2024-05-18 (8 months ago)
Launch vehicle
FALCON 9
Launch site
Air Force Eastern Test Range (AFETR)
Object type
Payload
Rocket body
Debris
Shape & HBRUnknown
Radar Cross SectionLarge (>1 m²)

Expand to show TLE details & history

TLE from 20 hours ago
0 STARLINK-31893
1 59792U 24093L   25014.46409769  .00028180  00000-0  38595-3 0  9999
2 59792  42.9980  56.9998 0014316  88.2381 272.0121 15.56725692 38584
Epoch: 2025-01-14T11:08Z
Definitive object data (Epoch: 2025-01-14T11:08:18.04Z)
Latitude-0.00001°
Longitude135.7542°
Altitude396.587 km
Speed7.674 km/s
True Right ascension03h 47m 59s
True Declination0° 00' 00"
Sunlit
Object was in full shadow at TLE epoch
Visualization TLE readout
Latitude-15.25752°
Longitude113.94065°
Altitude404.263 km
Speed7.667 km/s
Apparent Right ascension23h 40m 25s
Apparent Declination-37° 54' 35"
Sunlit
Object is in daylight
Visualization observer readout
Local Sidereal Time07:43:02
Azimuth252.568° W
Elevation-44.652°
Doppler factor1
Orbital elements
Apogee altitude408.813 km
Perigee altitude389.409 km
Semi-major axis6,777.248 km
Eccentricity0.0014316
Inclination42.998°
RAAN56.9998°
Arg. of periapsis88.2381°
True anomaly271.84814°
Mean anomaly272.0121°
Eccentric anomaly271.93012°
Mean motion3.89012 °/min
BSTAR0.00038595
Orbital period92.54 mins
Loading maneuver chart data...
Loading historical data...
Loading historical data...
Loading historical data...
Loading historical data...
Loading historical data...
Loading historical data...
Loading historical data...

STARLINK-31893 Visibility forecast

Observer location: undefined°, undefined

Span
Click to sort rows by Start time (UTC) header in descending order
Start Az.
Max El. time (UTC)
Max El. Az.
Max El.
End time (UTC)
End Az.
6 mins2025-01-15 07:25:33.728Z262.251° W2025-01-15 07:28:33.728Z355.484° N42.69°2025-01-15 07:31:33.728Z69.716° E
4 mins2025-01-15 09:04:33.728Z308.329° NW2025-01-15 09:05:33.728Z352.132° N35.601°2025-01-15 09:08:33.728Z78.003° E
4 mins2025-01-15 10:41:33.728Z281.609° WNW2025-01-15 10:42:33.728Z255.917° W42.833°2025-01-15 10:45:33.728Z115.273° SE
4 mins2025-01-16 06:31:33.728Z248.626° W2025-01-16 06:32:33.728Z243.278° WSW42.659°2025-01-16 06:35:33.728Z72.356° E
|